Volver al catálogo

STARLINK-30221

ActivoComunicacionesVLEO
NORAD 57418·PAYLOAD·🇺🇸 United States

Lanzado Jul 20, 2023 desde Vandenberg Space Force Base

Loading…

Próximos Pases (próximas 24 horas)

TLE

ActualizadoSource: CelesTrak SupGP

Época: Sep 15, 2026, 00:40 UTC

1 57418C 23102Q   26258.02826389  .00463870  00000+0  59472-2 0  2588
2 57418  42.9992 261.2000 0001608 277.7393  73.9598 15.58022949    13

Sigue STARLINK-30221 en tiempo real con AllMySat

Download on the App Store